Temp
62 62 61 62 61 61 62 62 62 62 62 62 63 62 62 62 61 57 53 63 63 67 66 62 61 59 58 54 55 51 42 40 43 45 49 56 54 60 58 56 58 57 57 59 63
62 61 61 61 61 61 61 61 61 61 61 61 62 62 62 62 53 51 64 68 68 67 59 58 57 58 52 53 52 47 40 46 49 47 47 54 52 54 55 54 53 53 57 59 61
62 61 61 61 61 61 61 61 61 61 61 61 61 61 61 59 50 56 67 68 67 65 60 59 59 58 50 51 50 47 43 49 51 52 52 53 53 53 50 52 57 55 55 57 57
61 61 61 61 61 61 60 60 60 60 60 61 61 61 61 54 43 59 66 67 67 63 59 58 56 52 49 48 54 45 51 52 54 53 53 51 52 54 51 57 60 56 59 57 56
60 60 60 60 60 60 60 60 60 60 60 60 61 61 56 48 50 63 64 65 61 60 57 56 52 51 47 50 51 48 50 55 53 53 52 54 52 52 53 57 58 58 57 56 57
58 59 59 60 60 60 60 60 60 60 60 60 61 60 52 43 62 63 62 60 60 58 56 56 54 54 50 49 49 51 50 50 52 52 52 52 48 52 54 55 56 56 55 56 56
57 58 58 59 60 60 60 60 60 60 60 60 61 57 50 49 60 61 62 60 60 58 54 57 57 52 51 47 52 50 46 48 52 52 52 51 48 49 55 56 55 56 54 54 56
56 56 57 58 59 59 59 59 59 59 59 60 60 50 43 59 62 58 59 58 61 60 57 58 59 53 49 52 49 44 43 38 48 48 52 52 43 54 54 50 54 54 52 55 56
55 55 54 56 57 58 58 58 58 59 59 60 49 46 39 59 52 57 59 55 57 58 58 63 56 50 49 42 38 38 34 36 43 49 47 46 44 52 50 51 52 53 55 54 55
56 54 54 54 56 57 57 58 57 57 55 55 53 43 46 46 53 55 57 57 53 53 52 51 47 41 39 38 31 34 34 38 38 44 44 41 44 49 52 50 52 54 54 56 55
56 55 54 54 53 56 54 47 41 40 45 40 43 43 48 54 56 52 55 53 52 47 40 45 39 35 40 44 43 40 38 36 40 46 43 41 43 47 50 49 48 52 55 55 56
55 55 54 54 54 53 52 44 45 45 36 45 46 47 52 52 46 50 56 46 44 37 42 39 36 44 47 45 43 41 37 36 42 45 43 41 42 48 49 49 55 55 54 55 56
54 54 54 54 54 49 47 47 54 51 36 40 45 44 47 49 43 45 51 46 40 38 39 38 41 48 46 42 41 40 39 37 40 41 41 38 38 43 47 48 51 52 56 57 58
53 54 54 54 45 47 44 51 52 50 30 34 38 43 48 47 40 53 54 47 41 38 38 39 45 43 43 42 44 37 44 44 42 38 31 37 28 38 47 48 49 53 48 54 52
53 53 54 53 41 39 47 52 50 43 14 35 38 51 48 42 43 45 55 47 38 38 39 36 37 38 39 42 47 42 46 44 41 36 33 33 30 36 40 44 51 56 52 49 50
52 53 53 47 43 44 47 51 44 27 13 29 39 37 37 41 43 45 46 48 47 40 39 39 43 44 42 45 48 46 43 40 36 33 20 33 35 33 41 48 50 52 54 52 50
53 52 49 47 38 46 42 42 25 19 32 28 31 36 35 34 38 41 39 36 34 28 28 35 37 41 45 40 41 41 37 21 20 17 22 32 31 39 46 50 50 53 54 53 50
52 51 47 46 45 43 37 29 18 25 27 36 36 35 31 36 37 39 36 33 41 35 31 29 24 37 42 40 36 35 37 26 21 20 27 32 30 38 48 54 50 53 53 49 46
52 40 38 43 45 41 30 20 21 27 33 33 34 30 30 34 35 37 36 35 39 40 29 27 30 39 44 42 44 36 35 39 27 18 24 30 34 43 47 49 48 50 49 49 47
36 33 36 44 44 37 25 22 25 34 33 32 28 30 28 32 30 32 33 39 38 43 42 35 25 35 39 44 40 41 43 31 25 15 18 26 28 37 42 47 48 48 49 49 47
33 27 35 43 41 29 20 23 27 35 36 29 28 29 29 29 32 30 31 38 43 41 45 38 32 29 37 35 36 34 35 34 34 29 23 18 30 40 50 51 52 49 48 49 47
33 23 36 41 26 27 23 26 33 33 37 31 31 28 28 30 29 30 31 36 44 45 37 41 34 24 31 37 41 41 38 38 31 22 25 27 29 47 47 49 49 47 50 47 46
29 24 35 35 19 22 26 26 29 30 32 29 28 31 30 26 21 30 31 38 41 41 40 42 31 23 27 33 34 36 37 44 35 32 29 27 32 44 45 45 44 48 47 45 43
29 21 27 31 28 25 23 24 24 31 31 33 31 33 29 25 27 24 27 33 36 36 43 40 35 32 29 31 34 27 36 37 35 25 31 36 33 40 41 44 43 43 42 41 42
30 24 26 18 21 25 26 21 23 22 29 32 27 29 25 20 23 23 28 31 37 37 37 35 30 34 36 34 37 34 35 35 32 39 32 39 32 40 43 43 41 42 42 42 39
27 22 24 10 23 23 26 23 22 26 22 24 23 27 29 21 26 25 29 29 28 32 31 33 24 31 31 34 34 31 35 35 34 36 37 36 29 43 44 43 44 44 43 43 42
32 33 29 26 15 17 19 24 26 28 27 31 28 29 25 28 34 32 36 35 33 31 26 27 27 26 23 32 30 27 32 35 37 41 40 33 43 43 46 49 45 45 44 44 44
MSLP
1022.21 1022.06 1021.81 1021.61 1021.34 1021.08 1020.69 1020.44 1019.91 1019.53 1019.20 1018.82 1018.35 1017.82 1017.69 1017.43 1016.90 1016.51 1016.11 1015.00 1014.82 1014.76 1014.67 1014.60 1014.32 1014.32 1014.29 1014.59 1014.79 1015.23 1016.19 1016.03 1014.74 1013.79 1012.79 1012.10 1011.62 1010.98 1010.69 1010.80 1011.24 1012.10 1012.49 1012.70 1013.10
1022.00 1021.92 1021.80 1021.60 1021.29 1021.08 1020.76 1020.35 1020.02 1019.60 1019.27 1018.87 1018.53 1017.81 1017.50 1017.29 1016.94 1016.06 1014.81 1014.66 1014.54 1014.64 1014.71 1014.69 1014.49 1014.47 1014.72 1014.64 1014.95 1015.48 1016.07 1015.23 1014.15 1013.55 1013.00 1012.51 1012.28 1011.88 1011.37 1011.53 1011.92 1012.54 1013.09 1013.16 1013.54
1021.69 1021.57 1021.51 1021.42 1021.28 1021.05 1020.71 1020.19 1020.06 1019.58 1019.31 1018.93 1018.64 1018.08 1017.44 1017.34 1016.89 1014.88 1014.38 1014.41 1014.45 1014.59 1014.72 1014.85 1014.62 1014.57 1014.83 1014.72 1014.82 1015.09 1015.15 1014.55 1013.92 1013.46 1013.16 1012.88 1012.61 1012.42 1012.05 1011.94 1011.88 1012.43 1013.41 1013.79 1014.04
1021.35 1021.35 1021.16 1021.02 1020.87 1020.80 1020.62 1020.30 1019.90 1019.65 1019.33 1018.98 1018.63 1018.12 1017.45 1017.32 1016.49 1014.41 1014.23 1014.22 1014.39 1014.51 1014.69 1014.70 1014.64 1014.62 1014.77 1014.79 1014.43 1014.73 1014.30 1014.14 1013.71 1013.48 1013.35 1013.22 1013.00 1012.82 1012.51 1011.87 1011.74 1012.11 1012.78 1013.62 1014.03
1021.09 1020.93 1020.86 1020.72 1020.58 1020.34 1020.32 1020.12 1019.89 1019.47 1019.23 1018.92 1018.51 1018.19 1017.62 1017.11 1015.49 1014.14 1014.17 1014.20 1014.46 1014.53 1014.66 1014.55 1014.71 1014.55 1014.60 1014.48 1014.43 1014.39 1014.18 1013.88 1013.51 1013.56 1013.45 1013.19 1013.12 1013.21 1012.26 1011.82 1011.83 1012.36 1013.00 1013.44 1013.66
1020.81 1020.59 1020.48 1020.42 1020.23 1020.00 1019.82 1019.80 1019.68 1019.38 1018.97 1018.81 1018.48 1018.23 1017.88 1016.67 1014.22 1014.10 1014.19 1014.44 1014.51 1014.55 1014.50 1014.55 1014.47 1014.47 1014.48 1014.32 1014.34 1013.97 1014.02 1014.00 1013.59 1013.37 1013.31 1013.35 1013.17 1013.17 1011.70 1011.40 1011.71 1012.21 1012.58 1012.93 1013.21
1020.76 1020.39 1020.10 1019.99 1019.84 1019.67 1019.52 1019.27 1019.22 1019.12 1018.90 1018.62 1018.38 1018.26 1017.21 1014.84 1013.95 1014.00 1014.15 1014.23 1014.27 1014.45 1014.47 1014.30 1014.35 1014.40 1014.42 1014.29 1014.13 1014.09 1014.33 1014.21 1013.57 1013.17 1013.27 1013.25 1013.27 1012.60 1011.07 1011.64 1011.76 1011.90 1012.18 1012.47 1012.55
1020.79 1020.54 1019.92 1019.57 1019.44 1019.35 1019.21 1019.06 1018.86 1018.72 1018.60 1018.45 1018.20 1018.23 1016.30 1014.14 1013.94 1014.12 1014.23 1014.17 1014.18 1014.25 1014.50 1014.26 1014.20 1014.49 1014.63 1014.50 1014.41 1014.50 1014.69 1014.60 1013.30 1013.24 1013.09 1013.30 1012.68 1011.42 1011.25 1011.52 1011.69 1011.70 1011.76 1011.99 1011.97
1020.58 1020.37 1020.08 1019.42 1019.03 1018.91 1018.80 1018.65 1018.47 1018.28 1018.14 1018.06 1018.16 1018.03 1015.84 1013.75 1013.75 1013.32 1013.89 1014.16 1014.14 1014.36 1014.44 1014.40 1014.32 1014.66 1014.94 1015.28 1015.50 1015.30 1015.17 1014.83 1013.99 1013.31 1013.26 1013.41 1012.69 1011.49 1011.37 1011.45 1011.60 1011.51 1011.26 1011.31 1011.27
1020.18 1020.12 1019.76 1019.36 1018.77 1018.47 1018.33 1018.18 1018.01 1017.86 1017.76 1017.70 1017.80 1017.93 1015.23 1013.42 1012.73 1012.85 1013.40 1013.80 1014.15 1014.51 1014.84 1014.75 1014.97 1015.16 1015.56 1015.68 1015.42 1015.29 1015.27 1014.59 1014.16 1013.56 1013.54 1013.64 1012.80 1011.96 1011.48 1011.74 1011.30 1010.96 1010.90 1010.73 1010.58
1019.52 1019.39 1019.33 1019.07 1018.84 1018.12 1018.22 1018.29 1018.14 1017.68 1017.35 1016.37 1015.72 1014.72 1013.31 1012.67 1012.45 1012.72 1012.96 1013.68 1014.13 1014.58 1014.95 1014.94 1015.24 1014.41 1014.63 1014.68 1014.78 1014.77 1014.65 1014.36 1013.81 1013.37 1013.65 1013.69 1013.07 1012.36 1011.65 1011.31 1011.21 1010.54 1010.08 1009.98 1009.74
1019.18 1018.97 1018.91 1018.75 1018.47 1018.07 1017.68 1017.43 1017.17 1017.46 1016.52 1015.51 1014.94 1014.57 1013.74 1013.30 1013.00 1012.59 1012.74 1013.62 1014.03 1014.33 1014.65 1015.27 1013.66 1013.94 1014.17 1014.57 1014.74 1014.86 1014.79 1014.54 1013.91 1013.50 1013.67 1013.58 1013.29 1012.08 1011.32 1010.70 1009.64 1009.43 1009.31 1008.94 1008.97
1018.91 1018.59 1018.30 1018.19 1017.86 1017.78 1016.97 1016.64 1016.87 1016.91 1016.68 1013.97 1013.40 1013.19 1013.15 1013.40 1012.68 1012.08 1012.46 1012.77 1013.47 1014.19 1014.06 1013.61 1013.13 1013.33 1013.83 1014.15 1014.50 1014.38 1014.48 1014.53 1014.36 1014.08 1013.94 1013.85 1012.83 1011.52 1010.16 1009.43 1008.61 1008.29 1007.84 1008.04 1007.93
1018.24 1018.07 1017.82 1017.74 1018.24 1016.73 1015.98 1016.43 1016.64 1017.21 1016.51 1012.07 1011.29 1010.30 1011.43 1012.70 1011.65 1011.26 1011.62 1012.05 1012.98 1013.29 1014.03 1013.80 1012.96 1013.10 1013.33 1013.30 1013.57 1013.94 1013.63 1014.22 1014.66 1015.00 1015.08 1014.31 1013.30 1011.60 1009.91 1009.02 1008.09 1007.10 1007.42 1007.04 1007.32
1017.44 1017.37 1017.29 1017.40 1017.05 1017.17 1016.06 1015.51 1016.33 1017.39 1015.41 1009.97 1009.26 1008.51 1008.78 1009.29 1009.32 1009.76 1010.70 1011.57 1011.93 1012.27 1013.17 1012.30 1012.34 1012.83 1012.71 1011.87 1012.72 1012.85 1013.08 1013.98 1014.77 1015.36 1015.46 1014.98 1014.83 1010.90 1009.85 1008.80 1007.11 1005.94 1005.91 1006.32 1006.76
1016.85 1016.66 1016.75 1016.72 1016.89 1016.34 1016.29 1015.19 1016.03 1015.82 1011.88 1008.97 1008.18 1008.15 1008.86 1009.16 1008.96 1009.42 1010.05 1010.76 1011.12 1011.97 1011.89 1011.78 1011.43 1011.54 1011.18 1011.60 1012.09 1012.74 1013.61 1014.64 1015.61 1016.23 1016.12 1014.78 1014.18 1010.83 1009.16 1007.01 1005.90 1005.25 1005.30 1005.60 1006.23
1016.11 1016.10 1016.19 1016.26 1016.24 1016.04 1016.30 1014.76 1014.35 1011.66 1009.99 1008.82 1008.12 1008.23 1008.62 1008.73 1009.18 1008.99 1009.63 1010.06 1009.85 1011.20 1011.38 1011.71 1011.42 1010.88 1010.70 1011.62 1012.17 1012.55 1013.58 1015.87 1016.93 1017.18 1015.40 1014.03 1013.67 1009.18 1007.18 1005.83 1005.25 1005.01 1004.99 1005.24 1005.77
1015.37 1015.40 1015.55 1015.44 1015.60 1016.07 1016.08 1014.92 1011.38 1009.98 1009.47 1008.14 1007.73 1007.96 1008.37 1008.45 1008.71 1008.63 1009.15 1009.47 1009.16 1009.04 1009.96 1010.61 1011.40 1009.71 1009.46 1009.59 1010.41 1011.83 1012.35 1013.49 1015.09 1015.71 1015.02 1014.10 1011.86 1008.00 1005.89 1004.45 1004.74 1004.78 1004.96 1005.47 1006.08
1014.58 1014.85 1014.84 1014.24 1014.74 1015.65 1015.70 1013.46 1009.76 1009.01 1009.14 1008.82 1008.20 1008.58 1008.56 1008.26 1008.20 1008.50 1008.38 1008.06 1008.18 1008.13 1008.88 1009.45 1009.41 1008.54 1008.59 1008.87 1009.21 1011.36 1011.63 1012.16 1013.62 1014.98 1014.73 1012.73 1009.97 1007.57 1005.50 1004.77 1004.61 1004.59 1005.02 1005.77 1006.31
1014.36 1014.77 1012.96 1013.39 1014.15 1015.09 1014.37 1012.03 1010.66 1009.13 1009.08 1009.67 1009.27 1008.83 1008.39 1008.00 1008.33 1008.59 1008.17 1007.12 1007.68 1007.75 1008.03 1008.19 1008.81 1008.50 1008.72 1008.62 1009.05 1008.70 1010.20 1012.17 1013.28 1014.07 1014.06 1011.58 1009.90 1007.17 1005.49 1004.72 1004.34 1004.65 1005.11 1005.68 1006.41
1014.27 1014.47 1012.04 1012.10 1013.74 1014.18 1012.70 1011.74 1010.52 1009.64 1009.36 1010.33 1009.21 1009.45 1009.15 1008.83 1008.40 1008.36 1007.66 1006.90 1006.77 1007.14 1007.96 1008.25 1008.35 1009.26 1008.64 1007.78 1007.49 1008.96 1009.49 1010.33 1011.12 1011.96 1011.87 1011.18 1007.78 1005.10 1003.99 1003.37 1003.68 1004.10 1004.86 1005.69 1006.36
1013.71 1013.90 1012.35 1012.17 1013.18 1012.39 1012.05 1011.59 1010.70 1009.33 1009.72 1010.50 1010.62 1010.57 1010.54 1010.15 1009.29 1008.86 1008.17 1007.23 1006.31 1006.76 1007.16 1007.71 1008.41 1009.03 1008.09 1007.88 1007.49 1007.54 1007.91 1008.56 1009.90 1010.88 1010.53 1009.69 1006.42 1003.88 1003.47 1003.29 1003.62 1004.19 1004.61 1005.18 1006.17
1013.03 1012.91 1012.18 1012.38 1012.52 1011.86 1011.46 1010.67 1010.60 1009.81 1009.54 1010.00 1010.40 1010.54 1011.04 1011.11 1011.12 1010.02 1009.45 1008.41 1008.04 1007.32 1006.95 1007.18 1007.80 1008.66 1008.87 1008.71 1008.00 1007.46 1007.65 1007.81 1008.40 1008.91 1008.98 1008.65 1005.33 1003.92 1003.61 1003.46 1003.66 1004.18 1004.78 1005.50 1006.46
1011.91 1012.56 1012.23 1011.90 1011.44 1011.49 1011.00 1010.72 1010.81 1010.18 1009.62 1010.08 1010.41 1010.56 1011.09 1011.67 1012.17 1011.54 1010.79 1010.26 1009.53 1009.04 1007.81 1007.73 1007.22 1006.78 1005.87 1005.25 1006.70 1007.48 1007.26 1007.69 1008.12 1008.29 1006.89 1005.39 1005.11 1004.40 1004.03 1003.76 1004.03 1004.50 1005.41 1006.37 1007.10
1009.69 1011.22 1011.29 1011.33 1010.97 1010.87 1010.69 1010.42 1010.34 1010.56 1010.58 1010.22 1010.65 1010.46 1010.84 1011.63 1012.16 1012.38 1011.94 1011.27 1010.20 1009.72 1009.11 1008.63 1007.36 1006.89 1006.10 1006.29 1006.13 1006.29 1006.79 1007.17 1007.39 1005.68 1006.73 1004.24 1005.59 1004.40 1004.25 1004.16 1004.74 1005.22 1006.12 1006.85 1007.48
1008.45 1010.15 1011.04 1010.67 1010.23 1010.31 1010.50 1010.18 1010.08 1010.00 1010.08 1010.10 1010.11 1010.20 1010.42 1010.86 1011.02 1011.30 1011.50 1011.69 1011.59 1010.77 1010.12 1009.57 1008.42 1007.36 1006.38 1006.30 1006.20 1006.29 1006.10 1006.53 1006.19 1005.75 1005.57 1004.92 1005.27 1004.28 1004.27 1004.30 1004.77 1005.45 1006.22 1006.93 1007.42
1007.52 1008.43 1009.60 1009.67 1009.99 1010.19 1009.59 1008.99 1008.66 1009.09 1009.23 1008.87 1009.10 1009.18 1009.87 1010.07 1009.94 1009.76 1010.15 1010.61 1010.83 1011.32 1011.66 1011.25 1009.53 1008.52 1007.54 1006.53 1006.50 1006.46 1004.95 1005.19 1004.73 1004.51 1004.32 1004.32 1003.08 1004.93 1004.46 1004.27 1004.63 1005.03 1006.05 1006.44 1006.76
Wind_Speed
12 13 13 13 13 13 13 13 12 13 13 15 17 11 13 14 15 3 5 5 4 3 3 4 2 2 2 0 1 3 5 3 4 2 3 6 4 6 2 2 4 4 3 2 12
11 12 13 14 14 13 13 13 14 14 13 14 16 16 14 15 3 5 7 6 3 2 1 1 1 2 1 2 1 5 4 9 2 1 2 4 4 6 3 4 2 3 5 4 10
13 10 10 12 13 13 14 13 13 13 15 14 15 18 13 10 5 5 2 3 5 2 2 1 3 3 2 2 3 5 7 5 3 1 1 4 5 5 2 3 5 5 6 5 4
12 14 13 11 9 11 13 13 13 12 12 14 14 15 14 2 5 2 3 4 5 4 2 2 3 5 4 4 5 3 6 5 3 1 1 2 3 8 3 7 6 2 12 8 9
16 14 13 12 11 9 11 13 14 15 10 13 15 13 6 2 10 3 2 3 4 4 3 3 3 5 5 4 2 4 4 5 2 5 5 3 6 7 9 12 8 2 10 13 11
20 17 14 14 13 12 8 11 14 15 14 12 14 14 3 10 5 5 5 4 2 3 4 4 4 2 3 3 4 2 3 3 4 4 4 5 4 5 8 7 10 7 11 12 13
23 21 17 14 15 14 13 10 12 13 15 14 13 6 10 18 2 6 6 4 2 2 3 3 2 2 1 2 1 2 3 4 8 5 6 5 6 10 13 5 9 8 7 10 14
22 25 23 18 15 14 14 14 14 14 14 15 15 4 10 5 15 7 4 2 2 3 2 2 5 3 2 3 3 2 3 1 4 6 6 8 10 10 6 5 9 10 9 9 13
21 22 24 22 18 15 14 15 14 16 15 14 5 5 11 2 8 7 8 6 4 2 3 2 4 4 2 4 4 2 4 5 8 7 4 5 7 7 2 3 5 7 7 8 9
19 20 23 26 22 18 16 15 12 15 7 4 5 7 6 6 4 7 7 8 4 6 3 3 3 4 2 5 8 7 5 5 5 3 2 4 14 9 9 3 11 11 8 9 10
22 17 20 21 28 20 12 3 3 4 4 10 7 6 6 6 3 4 7 7 5 5 8 5 5 12 14 14 2 4 4 3 3 3 3 7 11 11 11 10 10 14 11 10 11
23 23 19 22 24 25 12 5 6 3 11 17 19 17 18 3 3 6 12 9 7 6 7 4 17 9 9 7 9 5 3 5 5 4 3 5 12 13 12 12 19 16 14 14 7
23 22 23 21 24 15 13 11 4 4 9 10 19 14 14 7 8 8 18 7 6 10 14 13 4 15 12 8 12 8 10 4 6 3 3 4 8 9 7 8 10 12 17 12 16
22 23 22 19 13 11 15 10 6 6 8 10 11 11 17 7 11 13 16 8 6 16 9 12 6 14 9 15 12 9 11 8 6 3 5 1 8 7 8 10 8 14 10 17 11
21 23 21 20 3 5 8 9 8 4 8 6 9 3 11 23 9 17 22 6 11 11 10 11 12 11 11 11 16 6 8 11 6 4 0 3 2 9 3 8 16 15 11 11 11
20 20 21 10 3 8 11 11 6 10 14 5 8 9 12 20 2 11 21 4 6 7 2 7 4 12 10 7 15 8 7 7 5 3 2 9 9 6 7 11 7 7 7 9 10
18 20 17 9 5 5 2 8 10 14 3 6 7 11 12 14 14 14 21 20 12 10 11 4 5 5 8 8 4 6 9 3 3 2 8 2 4 9 9 13 9 10 8 9 8
19 19 12 8 2 3 3 9 15 19 19 3 5 12 11 11 19 15 21 22 21 5 11 15 7 15 8 9 11 8 10 9 9 6 3 4 10 9 14 12 5 7 8 1 4
19 5 5 9 8 5 3 11 10 11 1 7 4 7 7 6 8 10 20 24 18 15 10 8 12 4 14 6 14 8 13 6 7 3 3 6 8 9 11 13 6 9 3 6 7
1 2 14 7 10 4 7 18 6 1 7 6 21 1 13 12 8 18 12 15 18 21 1 4 1 6 7 6 1 14 12 4 3 6 5 6 6 8 3 10 8 6 8 8 5
2 3 4 10 9 5 8 7 9 3 9 1 1 4 4 3 7 12 7 6 22 15 16 2 3 4 9 13 18 6 11 3 7 6 7 2 8 10 18 13 13 10 8 8 9
4 6 4 7 8 5 10 7 8 8 10 4 3 3 3 2 5 7 11 7 8 13 21 10 2 4 17 5 6 7 10 9 8 8 2 4 10 4 9 8 5 3 7 7 6
3 4 3 4 6 10 4 2 5 4 6 8 5 5 3 5 7 7 6 11 11 5 11 15 7 4 5 5 1 16 7 20 4 4 13 10 8 4 3 4 1 7 5 4 6
5 3 2 5 4 8 14 12 6 4 4 6 5 5 3 5 1 9 13 12 14 15 14 6 11 16 16 13 8 7 16 10 6 4 6 21 5 2 4 4 2 4 3 4 5
5 5 5 4 7 14 4 4 13 8 5 9 8 11 7 4 6 5 5 8 10 4 7 2 5 21 19 4 14 9 16 20 16 25 10 17 11 8 6 6 3 1 4 5 5
6 4 2 4 3 9 11 11 12 8 9 7 5 11 12 9 9 6 6 9 10 7 7 7 4 5 25 13 12 7 18 18 22 19 20 11 4 8 4 2 4 5 5 6 8
2 3 4 5 2 5 8 15 16 10 4 7 10 9 9 12 11 14 14 8 6 10 4 7 6 5 4 12 8 15 19 22 23 24 26 20 24 5 12 13 5 5 7 8 8
Wind_Direction
337 333 336 330 339 345 351 350 354 358 352 349 343 330 327 327 322 313 241 225 204 326 326 297 274 274 84 325 178 95 69 218 259 214 254 342 355 344 295 72 56 9 132 274 132
317 327 328 334 329 326 334 342 344 348 351 351 333 332 326 332 300 251 246 260 230 351 305 329 175 142 11 200 172 106 141 213 238 264 288 321 12 321 31 12 83 33 8 74 129
305 293 308 317 321 322 325 326 334 342 344 346 339 332 321 333 309 241 212 241 223 177 143 294 269 177 214 169 197 174 192 201 231 248 310 322 320 312 337 271 218 186 174 172 153
293 286 278 290 302 311 320 331 326 327 338 341 340 329 317 319 275 207 277 241 186 148 164 202 215 152 176 210 209 174 225 218 229 213 256 271 297 322 232 230 146 355 175 169 179
291 277 269 275 282 292 309 317 323 322 323 334 339 331 334 265 251 208 115 148 153 152 188 170 166 161 183 207 200 219 231 230 213 275 236 223 229 229 252 256 264 244 158 193 194
309 288 274 273 275 278 287 307 317 316 314 323 331 329 244 244 248 170 145 146 204 190 184 173 185 184 248 231 172 236 164 283 290 276 276 233 256 149 261 246 257 202 197 197 198
333 311 282 276 275 279 281 278 292 305 310 310 317 322 252 237 224 179 171 192 181 190 187 185 180 152 173 268 282 181 312 337 260 228 234 159 285 231 242 270 270 258 219 213 211
326 340 309 281 273 273 281 286 291 292 295 297 300 303 252 222 240 244 211 228 240 204 251 237 160 127 190 283 14 122 58 314 288 145 243 132 264 268 257 219 253 258 246 218 219
326 328 328 300 274 267 270 279 287 287 284 286 305 220 263 240 214 223 186 207 155 204 227 281 116 167 90 96 17 316 220 206 310 190 139 165 262 255 106 38 293 280 273 233 229
308 318 323 332 289 269 265 275 282 286 276 247 224 262 260 233 186 180 174 150 158 138 132 148 94 138 123 134 204 198 212 228 227 222 141 211 260 277 279 283 279 276 255 255 230
302 306 308 317 317 275 274 332 348 295 188 213 198 244 290 201 127 163 153 136 121 141 166 204 162 197 189 193 172 160 165 193 238 204 181 222 262 267 273 295 253 264 257 240 238
304 301 301 302 314 315 254 213 215 138 285 221 244 246 263 356 295 201 137 157 159 176 144 145 226 193 184 185 207 210 200 242 290 242 169 267 259 263 256 248 252 241 247 236 235
299 299 299 302 301 303 259 227 237 41 270 237 217 218 222 199 225 210 173 147 148 169 192 198 187 171 181 183 198 216 220 208 226 330 255 309 275 261 280 246 266 245 236 235 219
285 292 295 293 303 275 237 195 199 97 269 244 201 235 206 163 261 196 185 148 187 195 169 228 205 177 192 210 180 213 191 196 190 139 238 106 281 291 272 283 256 259 220 233 218
284 284 287 285 283 297 304 167 151 91 253 230 185 218 195 183 121 194 178 204 175 170 148 217 177 162 195 202 179 220 156 186 173 176 115 246 294 270 254 266 258 258 234 223 220
282 285 293 291 238 228 271 197 127 211 224 269 153 169 153 201 181 138 174 184 166 166 273 200 183 188 177 159 176 152 94 61 61 109 287 190 187 246 218 216 249 270 249 227 211
280 285 288 277 248 253 216 194 202 219 293 244 172 163 174 183 205 164 181 193 171 158 199 148 201 186 148 124 137 167 129 32 359 0 228 168 186 248 257 256 225 258 272 238 213
276 275 280 263 186 238 343 256 218 217 223 337 168 157 182 147 209 175 176 196 219 185 160 179 204 177 181 180 166 177 162 160 185 196 214 104 231 257 240 270 279 265 266 12 198
274 278 245 243 197 201 241 256 220 167 269 237 64 162 209 183 165 186 198 208 205 196 167 175 230 156 182 156 145 186 205 150 102 20 69 218 284 289 256 267 262 243 186 203 200
223 264 254 185 166 179 233 256 259 230 91 303 224 302 193 195 168 192 184 207 213 216 161 230 117 220 184 114 270 179 144 143 343 138 225 266 265 231 301 262 268 225 210 207 193
99 272 288 175 146 200 246 270 212 239 145 224 94 219 309 303 185 187 201 276 196 191 215 321 138 305 139 204 179 138 182 151 124 165 166 208 257 214 217 217 231 230 207 207 196
156 243 279 133 210 203 229 200 266 181 184 160 159 130 288 347 310 204 214 214 190 190 202 197 93 163 206 288 205 196 183 161 165 220 232 136 256 225 226 236 245 254 214 213 178
208 231 245 159 240 241 222 336 206 159 169 155 151 149 106 44 3 346 348 309 11 249 195 197 200 135 113 325 257 208 202 201 110 114 204 163 245 320 138 89 92 177 197 169 146
152 252 260 199 231 239 224 224 245 281 145 138 176 165 120 285 240 303 327 321 334 320 312 356 210 216 211 208 130 185 202 206 168 181 174 220 131 166 243 201 134 106 118 137 161
151 206 177 216 221 218 219 168 213 208 211 198 181 198 157 196 154 229 282 317 286 307 315 203 248 221 230 186 182 186 203 203 206 224 190 228 205 264 200 198 217 151 126 146 172
162 159 142 244 151 194 225 191 199 206 154 179 163 201 188 175 174 212 234 252 281 18 350 336 269 321 224 225 209 194 200 200 217 226 240 219 271 218 220 74 161 167 180 209 207
61 99 130 244 205 136 195 220 225 188 263 220 209 234 188 220 227 217 224 241 218 282 319 305 337 2 289 212 192 234 208 203 217 220 221 228 227 188 274 261 235 235 195 219 233